Weather History for Auburn, AL

Change the Weather History Date:

Monday, November 17, 2014

  Actual Average Record
Temperature  
Mean Temperature 46 °F -  
Max Temperature 64 °F - 82 °F (1958)
Min Temperature 28 °F - 20 °F (1963)
Degree Days  
Heating Degree Days 19    
Month to date heating degree days 254  
Since 1 July heating degree days 349  
Moisture  
Dew Point 39 °F    
Average Humidity 79    
Maximum Humidity 94    
Minimum Humidity 64    
Precipitation  
Precipitation 0.62 in - 3.84 in (1986)
Month to date precipitation 0.63  
Year to date precipitation 34.94  
Sea Level Pressure  
Sea Level Pressure 29.97 in    
Wind  
Wind Speed 13 mph (WNW)    
Max Wind Speed 20 mph    
Max Gust Speed 25 mph    
Visibility 9 miles    
Events      
T = Trace of Precipitation, MM = Missing Value Source: NWS Daily Summary

Daily Weather History Graph

Daily Weather History Graph

Search for Another Location

Airport:

Trip Planner

Search our weather history database for the weather conditions in past years. The results will help you decide how hot, cold, wet, or windy it might be!

Date:

Astronomy

Nov. 17, 2014 Rise Set
Actual Time 6:13 AM CST 4:39 PM CST
Civil Twilight 5:47 AM CST 5:05 PM CST
Nautical Twilight 5:17 AM CST 5:35 PM CST
Astronomical Twilight 4:48 AM CST 6:05 PM CST
Moon 1:30 AM CST (11/17) 1:48 PM CST (11/17)
Length of Visible Light 11h 18m
Length of Day
10h 26m
Waning Crescent, 22% of the Moon is Illuminated
Nov 17
Waning Crescent
Nov 22
New
Nov 29
First Quarter
Dec 6
Full
Dec 14
Last Quarter

Hourly Weather History & Observations

Time (CST) Temp. Windchill Dew Point Humidity Pressure Visibility Wind Dir Wind Speed Gust Speed Precip Events Conditions
12:15 AM 55.4 °F - 50.0 °F 82% 29.91 in 10.0 mi SSE 6.9 mph - N/A   Overcast
12:35 AM 55.4 °F - 51.8 °F 88% 29.90 in 10.0 mi SSE 5.8 mph - N/A   Overcast
12:55 AM 55.4 °F - 51.8 °F 88% 29.89 in 10.0 mi SE 6.9 mph - N/A   Overcast
1:15 AM 57.2 °F - 51.8 °F 82% 29.88 in 10.0 mi SE 6.9 mph - N/A   Overcast
1:35 AM 55.4 °F - 51.8 °F 88% 29.86 in 10.0 mi SE 6.9 mph - N/A   Overcast
1:55 AM 55.4 °F - 51.8 °F 88% 29.85 in 10.0 mi SE 6.9 mph - N/A   Overcast
2:15 AM 57.2 °F - 53.6 °F 88% 29.85 in 10.0 mi SSE 6.9 mph - N/A   Overcast
2:35 AM 57.2 °F - 55.4 °F 94% 29.83 in 7.0 mi SSE 5.8 mph - N/A   Overcast
2:55 AM 59.0 °F - 55.4 °F 88% 29.84 in 6.0 mi South 5.8 mph - N/A   Overcast
3:15 AM 59.0 °F - 57.2 °F 94% 29.83 in 5.0 mi South 6.9 mph - N/A   Overcast
3:35 AM 60.8 °F - 57.2 °F 88% 29.81 in 4.0 mi South 8.1 mph - 0.01 in   Overcast
3:55 AM 60.8 °F - 59.0 °F 94% 29.81 in 5.0 mi South 9.2 mph - 0.01 in   Overcast
4:15 AM 62.6 °F - 60.8 °F 94% 29.80 in 4.0 mi South 10.4 mph - N/A   Overcast
4:35 AM 62.6 °F - 60.8 °F 94% 29.80 in 5.0 mi South 12.7 mph - 0.05 in   Overcast
4:55 AM 62.6 °F - 60.8 °F 94% 29.79 in 5.0 mi SSW 12.7 mph - 0.13 in   Overcast
5:15 AM 62.6 °F - 60.8 °F 94% 29.79 in 5.0 mi South 16.1 mph - 0.07 in   Overcast
5:35 AM 64.4 °F - 60.8 °F 88% 29.75 in 5.0 mi South 17.3 mph 27.6 mph 0.14 in   Overcast
5:55 AM 62.6 °F - 60.8 °F 94% 29.76 in 10.0 mi South 19.6 mph - 0.15 in   Overcast
6:15 AM 62.6 °F - 57.2 °F 82% 29.76 in 8.0 mi South 20.7 mph 25.3 mph 0.10 in   Overcast
6:35 AM 62.6 °F - 59.0 °F 88% 29.77 in 9.0 mi SW 16.1 mph 26.5 mph 0.18 in   Overcast
6:55 AM 62.6 °F - 59.0 °F 88% 29.79 in 10.0 mi WSW 17.3 mph 25.3 mph 0.23 in   Overcast
7:15 AM 60.8 °F - 57.2 °F 88% 29.81 in 10.0 mi West 12.7 mph 21.9 mph 0.08 in   Overcast
7:35 AM 60.8 °F - 57.2 °F 88% 29.81 in 10.0 mi NW 13.8 mph 21.9 mph 0.10 in   Overcast
7:55 AM 57.2 °F - 55.4 °F 94% 29.83 in 10.0 mi WNW 16.1 mph 23.0 mph 0.10 in   Overcast
8:15 AM 55.4 °F - 51.8 °F 88% 29.83 in 10.0 mi WNW 13.8 mph 21.9 mph N/A   Overcast
8:35 AM 53.6 °F - 50.0 °F 88% 29.85 in 10.0 mi WNW 15.0 mph 20.7 mph N/A   Overcast
8:55 AM 51.8 °F - 48.2 °F 88% 29.87 in 10.0 mi WNW 13.8 mph 21.9 mph N/A   Overcast
9:15 AM 50.0 °F - 46.4 °F 87% 29.88 in 10.0 mi WNW 15.0 mph - N/A   Overcast
9:35 AM 48.2 °F - 44.6 °F 87% 29.90 in 10.0 mi WNW 13.8 mph 19.6 mph N/A   Overcast
9:55 AM 48.2 °F - 44.6 °F 87% 29.92 in 10.0 mi NW 18.4 mph - N/A   Overcast
10:15 AM 46.4 °F 39.8 °F 42.8 °F 87% 29.93 in 10.0 mi NW 16.1 mph 23.0 mph N/A   Overcast
10:35 AM 44.6 °F 39.2 °F 39.2 °F 81% 29.93 in 10.0 mi NW 10.4 mph 23.0 mph N/A   Overcast
10:55 AM 42.8 °F 35.8 °F 39.2 °F 87% 29.95 in 10.0 mi NW 13.8 mph 19.6 mph N/A   Overcast
11:15 AM 42.8 °F 37.0 °F 39.2 °F 87% 29.95 in 10.0 mi NW 10.4 mph 17.3 mph N/A   Overcast
11:35 AM 42.8 °F 36.2 °F 39.2 °F 87% 29.95 in 10.0 mi NNW 12.7 mph - N/A   Overcast
11:55 AM 42.8 °F 36.2 °F 39.2 °F 87% 29.95 in 10.0 mi NW 12.7 mph - N/A   Overcast
12:15 PM 44.6 °F 38.4 °F 37.4 °F 76% 29.95 in 10.0 mi NW 12.7 mph 20.7 mph N/A   Overcast
12:35 PM 42.8 °F 34.8 °F 35.6 °F 76% 29.96 in 10.0 mi NW 17.3 mph 20.7 mph N/A   Overcast
12:55 PM 42.8 °F 35.4 °F 35.6 °F 76% 29.96 in 10.0 mi NNW 15.0 mph 20.7 mph N/A   Overcast
1:15 PM 42.8 °F 34.5 °F 33.8 °F 70% 29.96 in 10.0 mi NW 18.4 mph 25.3 mph N/A   Overcast
1:35 PM 42.8 °F 36.2 °F 33.8 °F 70% 29.97 in 10.0 mi NW 12.7 mph 25.3 mph N/A   Overcast
1:55 PM 41.0 °F 32.2 °F 33.8 °F 76% 29.98 in 10.0 mi NW 18.4 mph 25.3 mph N/A   Overcast
2:15 PM 41.0 °F 32.8 °F 30.2 °F 65% 29.99 in 10.0 mi NW 16.1 mph 27.6 mph N/A   Overcast
2:35 PM 41.0 °F 32.5 °F 30.2 °F 65% 30.00 in 10.0 mi NW 17.3 mph 24.2 mph N/A   Overcast
2:55 PM 39.2 °F 31.2 °F 30.2 °F 70% 30.01 in 10.0 mi NW 13.8 mph 25.3 mph N/A   Overcast
3:15 PM 39.2 °F 30.5 °F 30.2 °F 70% 30.01 in 10.0 mi NNW 16.1 mph 24.2 mph N/A   Overcast
3:35 PM 39.2 °F 30.5 °F 28.4 °F 65% 30.02 in 10.0 mi NW 16.1 mph 25.3 mph N/A   Overcast
3:55 PM 37.4 °F 27.5 °F 28.4 °F 70% 30.03 in 10.0 mi NW 18.4 mph 25.3 mph N/A   Overcast
4:15 PM 37.4 °F 28.2 °F 26.6 °F 65% 30.05 in 10.0 mi NNW 16.1 mph 20.7 mph N/A   Mostly Cloudy
4:35 PM 37.4 °F 30.3 °F 26.6 °F 65% 30.05 in 10.0 mi NW 10.4 mph - N/A   Partly Cloudy
4:55 PM 35.6 °F 27.5 °F 26.6 °F 70% 30.07 in 10.0 mi NW 11.5 mph - N/A   Scattered Clouds
5:15 PM 35.6 °F 28.6 °F 26.6 °F 70% 30.08 in 10.0 mi NW 9.2 mph - N/A   Clear
5:35 PM 35.6 °F 28.6 °F 26.6 °F 70% 30.08 in 10.0 mi NW 9.2 mph - N/A   Clear
5:55 PM 35.6 °F 29.2 °F 26.6 °F 70% 30.09 in 10.0 mi NW 8.1 mph - N/A   Clear
6:15 PM 35.6 °F 28.6 °F 26.6 °F 70% 30.09 in 10.0 mi NNW 9.2 mph - N/A   Clear
6:35 PM 33.8 °F 25.3 °F 26.6 °F 75% 30.10 in 10.0 mi NNW 11.5 mph - N/A   Clear
6:55 PM 33.8 °F 25.8 °F 24.8 °F 70% 30.11 in 10.0 mi NW 10.4 mph - N/A   Clear
7:15 PM 33.8 °F 26.4 °F 24.8 °F 70% 30.12 in 10.0 mi NW 9.2 mph - N/A   Clear
7:35 PM 33.8 °F 27.7 °F 24.8 °F 70% 30.12 in 10.0 mi NW 6.9 mph - N/A   Clear
7:55 PM 32.0 °F 27.5 °F 24.8 °F 75% 30.13 in 10.0 mi WNW 4.6 mph - N/A   Clear
8:15 PM 32.0 °F 25.6 °F 24.8 °F 75% 30.14 in 10.0 mi NW 6.9 mph - N/A   Clear
8:35 PM 32.0 °F 23.6 °F 24.8 °F 75% 30.15 in 10.0 mi NW 10.4 mph - N/A   Clear
8:55 PM 32.0 °F 22.5 °F 24.8 °F 75% 30.16 in 10.0 mi NNW 12.7 mph - N/A   Clear
9:15 PM 32.0 °F 24.8 °F 23.0 °F 69% 30.18 in 10.0 mi NNW 8.1 mph - N/A   Clear
9:35 PM 30.2 °F 20.2 °F 21.2 °F 69% 30.18 in 10.0 mi NNW 12.7 mph 20.7 mph N/A   Clear
9:55 PM 30.2 °F 19.3 °F 19.4 °F 64% 30.19 in 10.0 mi NNW 15.0 mph 23.0 mph N/A   Clear
10:15 PM 30.2 °F 20.8 °F 19.4 °F 64% 30.19 in 10.0 mi NNW 11.5 mph 19.6 mph N/A   Clear
10:35 PM 30.2 °F 20.2 °F 19.4 °F 64% 30.20 in 10.0 mi NW 12.7 mph 19.6 mph N/A   Clear
10:55 PM 28.4 °F 19.1 °F 19.4 °F 69% 30.20 in 10.0 mi NW 10.4 mph - N/A   Clear
11:15 PM 28.4 °F 18.0 °F 17.6 °F 64% 30.21 in 10.0 mi NW 12.7 mph 17.3 mph N/A   Clear
11:35 PM 28.4 °F 19.7 °F 17.6 °F 64% 30.21 in 10.0 mi NNW 9.2 mph 16.1 mph N/A   Clear
11:55 PM 28.4 °F 19.1 °F 17.6 °F 64% 30.21 in 10.0 mi NNW 10.4 mph - N/A   Clear